Home > Weather > Kathmandu > Past weeks

Flag for Nepal Weather for the Past 2 Weeks in Kathmandu, Nepal

Now
43 °F

Fog.


Feels Like: 43 °F
Forecast: 37 / 67 °F
Wind: No wind

Location: Kathmandu Airport

Current Time: Feb 9, 2016 at 7:46:01 AM

Latest Report: Feb 9, 2016 at 6:35 AM


Visibility: 1 mi

Pressure: 30.09 "Hg (25.65 "Hg at 1305m altitude)

Humidity: 100%

Dew point: 43 °F

Location of KathmanduLocation

Historic Weather in Kathmandu — Graph

°F

Kathmandu Temperature Yesterday

Maximum temperature yesterday: 61 °F (at 1:35 PM)
Minimum temperature yesterday: 50 °F (at 3:35 AM)
Average temperature yesterday: 54 °F

High & Low Weather Summary for the Past Weeks

 TemperatureHumidityPressure
High72 °F (Feb 7, 2:05 PM)100% (Jan 26, 4:35 AM)30.24 "Hg (Jan 26, 4:35 AM)
Low36 °F (Jan 26, 7:35 AM)26% (Feb 1, 1:05 PM)29.95 "Hg (Jan 27, 2:35 PM)
Average52 °F73%30.07 "Hg
* Reported Jan 25 6:05 AM — Feb 9 6:05 AM, Kathmandu, Weather by CustomWeather, © 2016

Note: Actual official high and low records may vary slightly from our data, if they occured in-between our weather recording intervals... More about our weather records

Advertising

Kathmandu Weather History for the Previous 24 Hours

 ConditionsComfort  
Time TempWeatherWind HumidityBarometerVisibility
6:05 AM
Tue, Feb 9
45 °FFog.No wind93%30.07 "Hg1 mi
5:35 AM45 °FFog.2 mph93%30.07 "Hg2 mi
4:35 AM45 °FFog.3 mph93%30.07 "Hg2 mi
3:35 AM46 °FFog.3 mph93%30.07 "Hg3 mi
2:35 AM46 °FFog.2 mph93%30.09 "Hg3 mi
1:35 AM46 °FFog.3 mph93%30.09 "Hg3 mi
12:35 AM48 °FFog.2 mph87%30.09 "Hg3 mi
12:05 AM48 °FFog.No wind87%30.09 "Hg3 mi
11:35 PM
Mon, Feb 8
50 °FFog.No wind88%30.09 "Hg3 mi
11:05 PM50 °FFog.3 mph88%30.12 "Hg3 mi
10:35 PM50 °FFog.3 mph88%30.12 "Hg3 mi
10:05 PM52 °FPassing clouds.2 mph82%30.12 "Hg4 mi
9:35 PM52 °FPartly cloudy.2 mph82%30.12 "Hg4 mi
9:05 PM52 °FPartly cloudy.3 mph77%30.12 "Hg4 mi
8:35 PM54 °FPartly cloudy.2 mph77%30.12 "Hg4 mi
8:05 PM54 °FPartly cloudy.2 mph72%30.12 "Hg4 mi
7:35 PM54 °FPartly cloudy.3 mph77%30.09 "Hg4 mi
7:05 PM54 °FThundershowers. Passing clouds.6 mph82%30.09 "Hg3 mi
6:35 PM55 °FThunderstorms. Partly cloudy.6 mph77%30.07 "Hg3 mi
6:05 PM55 °FThunderstorms. Scattered clouds.2 mph77%30.07 "Hg3 mi
5:35 PM55 °FThunderstorms. Scattered clouds.5 mph77%30.07 "Hg3 mi
5:05 PM57 °FScattered clouds.5 mph72%30.07 "Hg5 mi
4:35 PM57 °FScattered clouds.6 mph72%30.04 "Hg5 mi
4:05 PM59 °FScattered clouds.7 mph68%30.04 "Hg5 mi
3:35 PM61 °FScattered clouds.7 mph63%30.07 "Hg5 mi
3:05 PM61 °FScattered clouds.7 mph63%30.07 "Hg4 mi
2:35 PM61 °FScattered clouds.8 mph63%30.07 "Hg4 mi
2:05 PM59 °FScattered clouds.7 mph68%30.09 "Hg4 mi
1:35 PM61 °FScattered clouds.8 mph68%30.09 "Hg4 mi
12:35 PM57 °FScattered clouds.5 mph77%30.12 "Hg4 mi
12:05 PM57 °FFog.5 mph88%30.15 "Hg3 mi
11:35 AM54 °FLight rain. Partly sunny.5 mph94%30.18 "Hg1 mi
11:05 AM54 °FLight rain. Broken clouds.5 mph94%30.18 "Hg1 mi
10:35 AM54 °FFog.6 mph94%30.18 "Hg1 mi
10:05 AM54 °FLight rain. Broken clouds.6 mph94%30.18 "Hg1 mi
9:05 AM52 °FFog.5 mph94%30.15 "Hg1 mi
8:35 AM52 °FRain. Broken clouds.9 mph94%30.15 "Hg1 mi
8:05 AM52 °FRain. Broken clouds.5 mph94%30.15 "Hg1 mi
7:35 AM50 °FLight rain. Broken clouds.5 mph100%30.12 "Hg1 mi
7:05 AM50 °FLight rain. Partly cloudy.3 mph100%30.12 "Hg1 mi
Weather by CustomWeather, © 2016

See weather overviewHow to use our weather pages